TimeEST,TemperatureF,Dew PointF,Humidity,Sea Level PressureIn,VisibilityMPH,Wind Direction,Wind SpeedMPH,Gust SpeedMPH,PrecipitationIn,Events,Conditions,WindDirDegrees,DateUTC
12:54 AM,35.1,26.1,70,30.06,10.0,Calm,Calm,-,N/A,,Clear,0,2013-01-20 05:54:00
1:54 AM,30.9,26.1,82,30.05,10.0,SSW,5.8,-,N/A,,Clear,200,2013-01-20 06:54:00
2:54 AM,35.6,26.6,70,30.02,10.0,SW,4.6,-,N/A,,Clear,230,2013-01-20 07:54:00
3:54 AM,36.0,26.1,67,30.01,10.0,SW,4.6,-,N/A,,Clear,220,2013-01-20 08:54:00
4:54 AM,36.0,26.1,67,30.00,10.0,SW,5.8,-,N/A,,Clear,230,2013-01-20 09:54:00
5:54 AM,37.0,26.1,65,30.00,10.0,SW,5.8,-,N/A,,Clear,220,2013-01-20 10:54:00
6:54 AM,37.4,26.6,65,29.98,10.0,SW,5.8,-,N/A,,Clear,230,2013-01-20 11:54:00
7:54 AM,39.0,27.0,62,30.00,10.0,WSW,5.8,-,N/A,,Clear,240,2013-01-20 12:54:00
8:54 AM,46.0,28.9,51,30.00,10.0,WSW,11.5,21.9,N/A,,Clear,240,2013-01-20 13:54:00
9:54 AM,48.9,30.9,50,30.01,10.0,SW,10.4,20.7,N/A,,Clear,230,2013-01-20 14:54:00
10:54 AM,52.0,30.9,45,30.00,10.0,SW,13.8,23.0,N/A,,Clear,230,2013-01-20 15:54:00
11:54 AM,54.0,28.9,38,29.99,10.0,West,10.4,23.0,N/A,,Clear,270,2013-01-20 16:54:00
12:54 PM,55.0,27.0,34,29.97,10.0,West,16.1,26.5,N/A,,Clear,270,2013-01-20 17:54:00
1:54 PM,55.9,27.0,33,29.96,10.0,WSW,9.2,18.4,N/A,,Clear,250,2013-01-20 18:54:00
2:54 PM,55.9,24.1,29,29.96,10.0,West,11.5,25.3,N/A,,Clear,280,2013-01-20 19:54:00
3:54 PM,54.0,23.0,30,29.98,10.0,West,11.5,20.7,N/A,,Clear,270,2013-01-20 20:54:00
4:54 PM,53.1,23.0,31,30.00,10.0,West,8.1,17.3,N/A,,Clear,270,2013-01-20 21:54:00
5:54 PM,48.9,23.0,36,30.03,10.0,West,3.5,-,N/A,,Clear,270,2013-01-20 22:54:00
6:54 PM,46.0,21.9,39,30.06,10.0,SW,3.5,-,N/A,,Clear,230,2013-01-20 23:54:00
7:54 PM,39.9,23.0,51,30.07,10.0,Calm,Calm,-,N/A,,Clear,0,2013-01-21 00:54:00
8:54 PM,39.0,23.0,53,30.09,10.0,WSW,3.5,-,N/A,,Clear,250,2013-01-21 01:54:00
9:54 PM,39.9,21.0,47,30.08,10.0,WSW,3.5,-,N/A,,Clear,250,2013-01-21 02:54:00
10:54 PM,37.0,21.9,54,30.08,10.0,West,3.5,-,N/A,,Clear,270,2013-01-21 03:54:00
11:54 PM,43.0,17.1,35,30.07,10.0,West,5.8,-,N/A,,Clear,260,2013-01-21 04:54:00